Tracking 18980 objects as of 22-Feb-2018
HD Live streaming from Space Station
objects crossing your sky now

FENGYUN 1C DEB

Track FENGYUN 1C DEB now!
10-day predictions


NORAD ID: 31761
Int'l Code: 1999-025CFL
Perigee: 558.4 km
Apogee: 1,410.2 km
Inclination: 98.7 °
Period: 104.6 minutes
Semi major axis: 7355 km
RCS: 0.0036 m2 (small)
Launch date: May 10, 1999
Source: People's Republic of China (PRC)
Launch site: Taiyaun Space Center, China (TSC)

Note: This is SATELLITE DEBRIS
aabbcc
Your satellite tracking list
Your tracking list is empty




NASA's NSSDC Master Catalog

Two Line Element Set (TLE):
1 31761U 99025CFL 18052.30607233 +.00000643 +00000-0 +20006-3 0  9997
2 31761 098.6523 078.4955 0579016 117.3497 248.7806 13.76259162537845
Source of the keplerian elements: AFSPC